[[{"header":{"parameterUnit":"m.s-1","parameterCategory":1,"la1":30.2991,"la2":30.254,"lo1":-89.0895,"lo2":-89.0444,"dy":0.0017,"dx":0.0017,"nx":28,"ny":28,"refTime":"2024-10-19T09:00:00:Z","depth":0,"parameterNumber":2,"parameterNumberName":"U-component_of_WINDS"},"data":[0,0,0,0,0,0,0,0,0,0,0,0,0,0,0,0,0,0,0,0,0,0,0,0,0,0,0,0,0,0,0,0,0,0,0,0,0,0,0,0,0,0,0,0,0,0,0,0,0,0,0,0,0,0,0,0,0,0,-4.497,-4.497,0,-4.5041,-4.5042,-4.5043,-4.4875,-4.4869,-4.4864,-4.4859,-4.4936,-4.4943,-4.495,0,0,0,0,0,0,0,0,0,0,0,0,0,-4.469,-4.4696,-4.4969,-4.497,-4.4971,-4.5041,-4.5042,-4.5043,-4.4875,-4.4869,-4.4862,-4.4856,-4.4934,-4.4942,-4.495,0,0,0,0,0,0,0,0,0,0,0,0,0,-4.4791,-4.4698,-4.4969,-4.4896,-4.489,-4.5041,-4.5042,-4.5043,-4.4877,-4.4869,-4.4861,-4.4853,-4.4931,-4.4941,-4.4952,-4.5178,0,0,-4.4984,-4.4989,0,0,0,0,0,0,0,0,-4.4786,-4.4802,-4.4906,-4.4901,-4.4895,-4.494,-4.4971,-4.5089,-4.4879,-4.4882,-4.4859,-4.4849,-4.4944,-4.4953,-4.4984,-4.5182,-4.5185,-4.4985,-4.4991,-4.4996,-4.4999,0,0,0,0,0,0,0,-4.4779,-4.4798,-4.4998,-4.4908,-4.4901,-4.486,-4.4866,-4.4993,-4.4958,-4.4881,-4.4869,-4.488,-4.494,-4.4975,-4.4985,-4.5186,-4.4985,-4.4994,-4.5001,-4.5005,-4.5572,-4.5581,0,0,0,0,0,0,-4.4781,-4.4793,-4.4995,-4.5,-4.4819,-4.4872,-4.4878,-4.4934,-4.4956,-4.4951,-4.4886,-4.4872,-4.4961,-4.4973,-4.4987,-4.5254,-4.4996,-4.5006,-4.5012,-4.5564,-4.5574,-4.5584,0,0,0,0,0,0,-4.4776,-4.4801,-4.4993,-4.4893,-4.4915,-4.4885,-4.495,-4.494,-4.4974,-4.496,-4.4953,-4.4929,-4.4955,-4.4972,-4.5131,-4.5254,-4.5011,-4.502,-4.5553,-4.5567,-4.5579,-4.579,0,0,0,0,0,0,-4.4768,-4.48,-4.4885,-4.4896,-4.4921,-4.5136,-4.4957,-4.4947,-4.4993,-4.4974,-4.4997,-4.4994,-4.495,-4.5117,-4.5142,-4.5265,-4.5028,-4.5542,-4.5559,-4.5575,-4.5772,-4.5808,-4.584,0,0,0,0,0,-4.4759,-4.4943,-4.489,-4.4916,-4.5027,-4.5143,-4.5157,-4.5102,-4.5003,-4.5089,-4.5079,-4.4993,-4.5236,-4.5134,-4.5162,-4.5289,-4.5534,-4.5554,-4.5573,-4.5757,-4.5801,-4.5839,0,0,0,0,0,0,-4.4948,-4.4943,-4.4885,-4.5077,-4.5112,-4.5115,-4.5222,-4.5151,-4.5216,-4.5196,-4.5125,-4.5132,-4.5305,-4.5312,-4.5199,-4.5509,-4.5369,-4.5395,-4.5498,-4.5541,-4.5574,-4.557,-4.5037,0,0,0,0,0,-4.5012,-4.5106,-4.5096,-4.5267,-4.5287,-4.5252,-4.5301,-4.5255,-4.5289,-4.5303,-4.5304,-4.5341,-4.5425,-4.5483,-4.556,-4.5771,-4.5774,-4.5872,-4.5906,-4.5934,-4.5958,-4.6071,-4.6114,-4.5648,-4.5648,-4.5648,0,0,-4.5146,-4.5154,-4.5218,-4.5306,-4.5327,-4.5427,-4.5266,-4.5378,-4.5452,-4.532,-4.5471,-4.5473,-4.5509,-4.5696,-4.5778,-4.5707,-4.6087,-4.5959,-4.5982,-4.5991,-4.6096,-4.614,-4.6179,-4.5661,-4.5659,-4.5657,0,0,-4.544,-4.5456,-4.56,-4.5624,-4.5658,-4.5633,-4.5667,-4.5681,-4.5677,-4.5826,-4.5729,-4.5816,-4.5963,-4.5993,-4.6028,-4.6332,-4.6255,-4.6359,-4.6538,-4.6649,-4.6685,-4.6718,-4.6828,-4.6868,-4.6382,-4.6383,-4.6383,0,-4.5603,-4.5749,-4.5683,-4.5803,-4.5845,-4.5727,-4.5873,-4.59,-4.5958,-4.599,-4.5909,-4.6091,-4.6107,-4.6299,-4.6373,-4.6404,-4.6443,-4.6357,-4.6685,-4.6717,-4.6746,-4.685,-4.6892,-4.6396,-4.6394,-4.6393,-4.6392,0,-4.5947,-4.605,-4.6162,-4.622,-4.6274,-4.6406,-4.6362,-4.6424,-4.6373,-4.6357,-4.6511,-4.6525,-4.6603,-4.6645,-4.6597,-4.683,-4.6785,-4.6696,-4.6554,-4.6804,-4.6901,-4.694,-4.6414,-4.6409,-4.6405,-4.6402,0,0,-4.6366,-4.6384,-4.6427,-4.6451,-4.6479,-4.6558,-4.6684,-4.6759,-4.6815,-4.6858,-4.6963,-4.709,-4.7007,-4.7046,-4.7,-4.7097,-4.7339,-4.6995,-4.6995,-4.706,-4.7598,-4.7667,-4.7714,-4.7286,-4.7294,-4.73,-4.7595,0,-4.6658,-4.6875,-4.6819,-4.7036,-4.713,-4.7019,-4.713,-4.7159,-4.7147,-4.7226,-4.7212,-4.7303,-4.7186,-4.7209,-4.73,-4.729,-4.7446,-4.7268,-4.7386,-4.7391,-4.7383,-4.7764,-4.7837,-4.8116,-4.7633,-4.7639,-4.7644,0,-4.7029,-4.7086,-4.7311,-4.7323,-4.736,-4.7461,-4.7525,-4.7601,-4.7632,-4.7616,-4.766,-4.7594,-4.772,-4.7575,-4.7748,-4.7628,-4.7672,-4.7675,-4.7684,-4.7695,-4.7534,-4.7787,-4.8203,-4.8246,-4.7702,-4.7698,-4.7693,0,-4.7314,-4.7446,-4.7598,-4.7622,-4.7639,-4.7713,-4.7723,-4.7746,-4.7794,-4.785,-4.7881,-4.7951,-4.7991,-4.8047,-4.8002,-4.79,-4.8183,-4.8034,-4.8175,-4.8177,-4.8242,-4.8239,-4.8673,-4.8268,-4.8267,-4.8266,-4.8265,0,-4.7648,-4.7791,-4.7726,-4.782,-4.7977,-4.7911,-4.8068,-4.8066,-4.8087,-4.8179,-4.8087,-4.8175,-4.811,-4.8193,-4.8159,-4.8308,-4.8326,-4.8318,-4.8307,-4.8327,-4.8329,-4.8357,-4.8338,-4.8277,-4.8275,-4.8272,-4.8271,0,-4.7994,-4.7956,-4.8115,-4.8117,-4.8121,-4.8236,-4.8238,-4.8326,-4.8305,-4.8423,-4.8447,-4.8416,-4.8509,-4.8469,-4.8568,-4.8544,-4.8737,-4.8699,-4.8726,-4.8718,-4.8861,-4.8849,-4.9331,-4.9391,-4.8945,-4.895,-4.8953,0,-4.8211,-4.8318,-4.8331,-4.8385,-4.8402,-4.8491,-4.8539,-4.8478,-4.8532,-4.8575,-4.8658,-4.8742,-4.8807,-4.8961,-4.8948,-4.9023,-4.8988,-4.9151,-4.8999,-4.9015,-4.8992,-4.8987,-4.8998,-4.9183,-4.9188,-4.9192,-4.9196,0,-4.86,-4.8575,-4.8648,-4.8715,-4.8774,-4.8824,-4.8866,-4.8916,-4.8856,-4.8922,-4.9015,-4.9065,-4.9165,-4.9251,-4.9316,-4.9328,-4.9254,-4.9243,-4.928,-4.9303,-4.9315,-4.9312,-4.8812,-4.9233,-4.923,-4.9227,-4.9225,-4.9223,-4.8888,-4.8978,-4.9002,-4.9086,-4.911,-4.9151,-4.9233,-4.9222,-4.9299,-4.9374,-4.9333,-4.9442,-4.947,-4.955,-4.9572,-4.9657,-4.9593,-4.9646,-4.966,-4.9674,-4.9694,-4.9299,-4.9668,-4.9667,-4.9666,-4.9665,-4.9664,0,-4.9274,-4.9283,-4.9361,-4.9421,-4.9488,-4.9409,-4.945,-4.9512,-4.9609,-4.964,-4.9705,-4.9812,-4.9894,-4.9887,-4.9963,-5.0033,-5.0,-5.0055,-5.005,-5.0054,-4.9746,-4.9707,-5.008,-5.008,-5.0079,-5.0079,-5.0079,-5.0079,-4.9483,-4.9631,-4.9609,-4.9769,-4.9776,-4.9882,-4.9912,-4.995,-4.9974,-5.0098,-5.0165,-5.0159,-5.0176,-5.0251,-5.0324,-5.0319,-5.0353,-5.042,-5.0404,-5.0117,-5.0076,-5.0037,-5.0,-5.0428,-5.0428,-5.0705,-5.0708,-5.071]},{"header":{"parameterUnit":"m.s-1","parameterCategory":1,"la1":30.2991,"la2":30.254,"lo1":-89.0895,"lo2":-89.0444,"dy":0.0017,"dx":0.0017,"nx":28,"ny":28,"refTime":"2024-10-19T09:00:00:Z","depth":0,"parameterNumber":3,"parameterNumberName":"V-component_of_WINDS"},"data":[0,0,0,0,0,0,0,0,0,0,0,0,0,0,0,0,0,0,0,0,0,0,0,0,0,0,0,0,0,0,0,0,0,0,0,0,0,0,0,0,0,0,0,0,0,0,0,0,0,0,0,0,0,0,0,0,0,0,-3.0226,-3.0226,0,-3.0234,-3.0234,-3.0234,-3.0211,-3.021,-3.0209,-3.0209,-3.0215,-3.0216,-3.0217,0,0,0,0,0,0,0,0,0,0,0,0,0,-3.0187,-3.0188,-3.0225,-3.0226,-3.0226,-3.0234,-3.0234,-3.0234,-3.0211,-3.021,-3.0209,-3.0208,-3.0215,-3.0216,-3.0217,0,0,0,0,0,0,0,0,0,0,0,0,0,-3.02,-3.0188,-3.0225,-3.0215,-3.0214,-3.0234,-3.0234,-3.0234,-3.0211,-3.021,-3.0209,-3.0208,-3.0215,-3.0216,-3.0217,-3.0246,0,0,-3.0221,-3.0221,0,0,0,0,0,0,0,0,-3.0199,-3.0202,-3.0217,-3.0216,-3.0215,-3.022,-3.0222,-3.0238,-3.0211,-3.0212,-3.0209,-3.0207,-3.0218,-3.0218,-3.0222,-3.0246,-3.0246,-3.0221,-3.0222,-3.0222,-3.0223,0,0,0,0,0,0,0,-3.0199,-3.0201,-3.0229,-3.0217,-3.0216,-3.0209,-3.021,-3.0225,-3.0221,-3.0212,-3.021,-3.0212,-3.0217,-3.0221,-3.0222,-3.0246,-3.0221,-3.0222,-3.0223,-3.0223,-3.0291,-3.0292,0,0,0,0,0,0,-3.0199,-3.0201,-3.0228,-3.0229,-3.0205,-3.0211,-3.0212,-3.022,-3.022,-3.022,-3.0213,-3.0211,-3.0219,-3.0221,-3.0222,-3.0254,-3.0222,-3.0223,-3.0224,-3.029,-3.0291,-3.0293,0,0,0,0,0,0,-3.0199,-3.0202,-3.0228,-3.0214,-3.0217,-3.0213,-3.0222,-3.022,-3.0224,-3.0221,-3.022,-3.0218,-3.0219,-3.0221,-3.024,-3.0254,-3.0224,-3.0225,-3.0289,-3.0291,-3.0292,-3.0319,0,0,0,0,0,0,-3.0198,-3.0202,-3.0214,-3.0215,-3.0218,-3.0246,-3.0223,-3.0221,-3.0227,-3.0224,-3.0226,-3.0225,-3.0218,-3.0238,-3.0241,-3.0255,-3.0226,-3.0288,-3.029,-3.0292,-3.0317,-3.0321,-3.0325,0,0,0,0,0,-3.0196,-3.0221,-3.0215,-3.0218,-3.0233,-3.0247,-3.0249,-3.0241,-3.0228,-3.0239,-3.0236,-3.0225,-3.0252,-3.024,-3.0243,-3.0258,-3.0287,-3.0289,-3.0291,-3.0315,-3.032,-3.0325,0,0,0,0,0,0,-3.0222,-3.0221,-3.0214,-3.024,-3.0244,-3.0243,-3.0257,-3.0248,-3.0255,-3.0252,-3.0241,-3.0242,-3.0262,-3.0262,-3.0249,-3.0284,-3.0267,-3.027,-3.0284,-3.0289,-3.0293,-3.0292,-3.0227,0,0,0,0,0,-3.0231,-3.0244,-3.0242,-3.0265,-3.0267,-3.0262,-3.0268,-3.0262,-3.0265,-3.0266,-3.0265,-3.0268,-3.0277,-3.0283,-3.0292,-3.0317,-3.0315,-3.0328,-3.0333,-3.0336,-3.0339,-3.0349,-3.0354,-3.03,-3.03,-3.03,0,0,-3.0249,-3.025,-3.0259,-3.027,-3.0273,-3.0284,-3.0264,-3.0278,-3.0286,-3.0268,-3.0285,-3.0285,-3.0287,-3.0309,-3.0318,-3.0309,-3.0353,-3.0339,-3.0342,-3.0342,-3.0352,-3.0357,-3.0362,-3.0302,-3.0302,-3.0302,0,0,-3.0288,-3.0291,-3.031,-3.0312,-3.0315,-3.0311,-3.0316,-3.0316,-3.0315,-3.0332,-3.0318,-3.0328,-3.0344,-3.0346,-3.0349,-3.0386,-3.0374,-3.0389,-3.041,-3.0421,-3.0425,-3.0429,-3.044,-3.0444,-3.0391,-3.0392,-3.0392,0,-3.031,-3.0329,-3.032,-3.0335,-3.0339,-3.0323,-3.0341,-3.0343,-3.0349,-3.0352,-3.0342,-3.0361,-3.0362,-3.0382,-3.0391,-3.0395,-3.0398,-3.0388,-3.0425,-3.0429,-3.0432,-3.0443,-3.0447,-3.0393,-3.0393,-3.0393,-3.0393,0,-3.0354,-3.0367,-3.0381,-3.0387,-3.0393,-3.0409,-3.0401,-3.0408,-3.0401,-3.0397,-3.0414,-3.0414,-3.0421,-3.0426,-3.0419,-3.0445,-3.0439,-3.0427,-3.0409,-3.0439,-3.0449,-3.0453,-3.0395,-3.0395,-3.0394,-3.0394,0,0,-3.041,-3.041,-3.0415,-3.0416,-3.0418,-3.0427,-3.0441,-3.0448,-3.0453,-3.0457,-3.0468,-3.0481,-3.047,-3.0473,-3.0466,-3.0476,-3.0502,-3.0463,-3.0463,-3.0469,-3.0528,-3.0535,-3.054,-3.0495,-3.0496,-3.0497,-3.0527,0,-3.0447,-3.0472,-3.0464,-3.0488,-3.0498,-3.0483,-3.0495,-3.0496,-3.0493,-3.05,-3.0496,-3.0505,-3.0491,-3.0492,-3.0501,-3.0497,-3.0514,-3.0495,-3.0503,-3.0503,-3.0501,-3.0546,-3.0554,-3.0583,-3.0531,-3.0532,-3.0532,0,-3.0493,-3.0498,-3.0524,-3.0521,-3.0525,-3.0537,-3.0541,-3.0549,-3.0549,-3.0546,-3.0549,-3.0539,-3.0551,-3.0534,-3.0549,-3.0537,-3.054,-3.0538,-3.0539,-3.0538,-3.0519,-3.0544,-3.0592,-3.0596,-3.0538,-3.0538,-3.0537,0,-3.0529,-3.0542,-3.0558,-3.056,-3.0559,-3.0566,-3.0566,-3.0566,-3.0569,-3.0573,-3.0575,-3.058,-3.0582,-3.0586,-3.0577,-3.0566,-3.0593,-3.0576,-3.0589,-3.0589,-3.0595,-3.0594,-3.0642,-3.0599,-3.0599,-3.0599,-3.0599,0,-3.057,-3.0585,-3.0574,-3.0584,-3.06,-3.059,-3.0606,-3.0604,-3.0603,-3.0611,-3.0599,-3.0606,-3.0595,-3.0601,-3.0595,-3.0607,-3.0609,-3.0605,-3.0603,-3.0606,-3.0606,-3.0606,-3.0603,-3.06,-3.06,-3.06,-3.06,0,-3.0612,-3.0605,-3.0621,-3.0618,-3.0617,-3.0629,-3.0626,-3.0634,-3.0629,-3.064,-3.0641,-3.0634,-3.064,-3.0632,-3.0638,-3.0633,-3.065,-3.0645,-3.0649,-3.0647,-3.0661,-3.0659,-3.0709,-3.0714,-3.067,-3.067,-3.0671,0,-3.0638,-3.0649,-3.0646,-3.0651,-3.0651,-3.0659,-3.0662,-3.0652,-3.0656,-3.0656,-3.0664,-3.0669,-3.0673,-3.0683,-3.0678,-3.0682,-3.0676,-3.0693,-3.0676,-3.0678,-3.0674,-3.0673,-3.0673,-3.0696,-3.0697,-3.0697,-3.0698,0,-3.0683,-3.0679,-3.0685,-3.0688,-3.0693,-3.0696,-3.0697,-3.0701,-3.0691,-3.0696,-3.0702,-3.0705,-3.071,-3.0714,-3.0716,-3.0715,-3.0704,-3.0703,-3.0706,-3.0708,-3.0709,-3.0706,-3.0657,-3.0702,-3.0701,-3.0701,-3.0701,-3.07,-3.0717,-3.0725,-3.0724,-3.073,-3.073,-3.0731,-3.0738,-3.0734,-3.0739,-3.0742,-3.0736,-3.0743,-3.0741,-3.0743,-3.0742,-3.0747,-3.0739,-3.0744,-3.0745,-3.0746,-3.0747,-3.0709,-3.0747,-3.0747,-3.0747,-3.0747,-3.0747,0,-3.076,-3.0758,-3.0763,-3.0766,-3.077,-3.076,-3.076,-3.0764,-3.0771,-3.077,-3.0774,-3.078,-3.0784,-3.0778,-3.0781,-3.0785,-3.078,-3.0786,-3.0785,-3.0784,-3.0755,-3.0751,-3.079,-3.079,-3.079,-3.079,-3.079,-3.079,-3.0782,-3.0795,-3.0791,-3.0803,-3.08,-3.0807,-3.0808,-3.0809,-3.0808,-3.0815,-3.0818,-3.0815,-3.0811,-3.0813,-3.0816,-3.0814,-3.0815,-3.0822,-3.0818,-3.0791,-3.0787,-3.0782,-3.0779,-3.0823,-3.0823,-3.0847,-3.0847,-3.0848]}]]